Weather reports worldwide

Advertisment
Calvi, France (7754): temperature & dewpoint: 18.06.2018 11:00:00 - 24.06.2018 11:00:00 (CEST)Calvi, France (7754): temperature 5cm: 18.06.2018 11:00:00 - 24.06.2018 11:00:00 (CEST)Calvi, France (7754): wind speed & gusts: 18.06.2018 11:00:00 - 24.06.2018 11:00:00 (CEST)Calvi, France (7754): wind direction: 18.06.2018 11:00:00 - 24.06.2018 11:00:00 (CEST)Calvi, France (7754): reduced air pressure: 18.06.2018 11:00:00 - 24.06.2018 11:00:00 (CEST)Calvi, France (7754): visibility: 18.06.2018 11:00:00 - 24.06.2018 11:00:00 (CEST)Calvi, France (7754): precipitation: 18.06.2018 11:00:00 - 24.06.2018 11:00:00 (CEST)
Date & Time tt [°C] td [°C] tt 5cm [°C] ff [km/h] ff [kn] fx [km/h] fx [kn] dd ppp [hPa] vv [km] rr [mm]
24.06.2018 11:00:00 25,6 17,5 29,2 10 5 16 9 N 1016,2 45 0,0
24.06.2018 10:00:00 25,2 15,5 26,2 7 4 14 8 NNE 1016,2 48 0,0
24.06.2018 09:00:00 23,7 15,5 24,0 0 0 7 4 N 1016,0 60 0,0
24.06.2018 08:00:00 21,4 15,2 19,1 4 2 8 5 SSW 1016,0 59 0,0
24.06.2018 07:00:00 17,7 13,6 15,7 3 2 10 5 S 1015,7 52 0,0
24.06.2018 06:00:00 16,2 13,3 15,6 4 2 13 7 SW 1015,4 49 0,0
24.06.2018 05:00:00 16,1 13,0 15,5 5 3 9 5 S 1015,5 40 0,0
24.06.2018 04:00:00 16,4 12,6 16,0 9 5 13 7 S 1015,7 53 0,0
24.06.2018 03:00:00 16,8 13,3 15,9 10 5 16 8 S 1016,2 41 0,0
24.06.2018 02:00:00 16,9 13,6 16,2 5 3 13 7 S 1016,5 45 0,0
24.06.2018 01:00:00 17,4 14,3 16,9 8 4 14 8 SSW 1016,8 39 0,0
24.06.2018 00:00:00 17,9 14,6 17,4 8 4 11 6 SSW 1016,7 42 0,0
23.06.2018 23:00:00 19,1 15,0 18,5 6 3 13 7 S 1016,6 47 0,0
23.06.2018 22:00:00 20,6 15,8 20,0 8 4 12 6 SSW 1016,0 37 0,0
23.06.2018 21:00:00 22,9 16,9 22,6 6 3 13 7 WNW 1015,1 45 0,0
23.06.2018 20:00:00 25,6 16,4 28,8 8 4 23 13 NW 1015,0 57 0,0
23.06.2018 19:00:00 26,3 16,2 30,3 16 8 28 15 NNW 1014,7 20 0,0
23.06.2018 18:00:00 27,9 16,2 32,8 15 8 33 18 N 1014,8 19 0,0
23.06.2018 17:00:00 28,8 15,0 30,1 18 10 37 20 N 1015,0 60 0,0
23.06.2018 16:00:00 27,6 12,4 30,5 26 14 41 22 N 1015,2 55 0,0
23.06.2018 15:00:00 28,8 13,5 31,1 24 13 39 21 N 1015,3 60 0,0
23.06.2018 14:00:00 27,7 16,0 28,8 25 14 42 23 N 1015,7 60 0,0
23.06.2018 13:00:00 27,4 15,7 29,8 28 15 45 25 N 1015,9 50 0,0
23.06.2018 12:00:00 28,1 17,6 29,9 27 14 38 21 N 1015,7 55 0,0
23.06.2018 11:00:00 27,4 18,1 28,3 25 14 37 20 N 1015,5 49 0,0
23.06.2018 10:00:00 27,4 17,8 27,6 22 12 38 20 NNE 1015,3 16 0,0
23.06.2018 09:00:00 25,2 19,8 25,8 11 6 23 12 NW 1015,1 20 0,0
23.06.2018 08:00:00 23,7 18,8 23,1 0 0 10 6 N 1014,6 19 0,0
23.06.2018 07:00:00 22,0 18,6 21,1 6 4 11 6 S 1014,3 19 0,0
23.06.2018 06:00:00 21,2 18,4 21,0 0 0 17 9 N 1013,9 15 0,0
23.06.2018 05:00:00 20,9 18,7 20,6 10 6 15 8 SSE 1013,7 15 0,0
23.06.2018 04:00:00 20,4 18,3 20,1 11 6 15 8 SSE 1013,4 14 0,0
23.06.2018 03:00:00 20,1 18,4 19,7 11 6 18 10 S 1013,4 13 0,0
23.06.2018 02:00:00 20,2 18,5 20,0 10 5 13 7 SSE 1013,7 12 0,0
23.06.2018 01:00:00 21,9 19,5 21,4 0 0 8 4 N 1013,6 14 0,0
23.06.2018 00:00:00 22,5 19,7 22,6 7 4 12 7 E 1013,3 15 0,0
22.06.2018 23:00:00 22,2 19,7 21,9 2 1 16 9 E 1012,8 14 0,0
22.06.2018 22:00:00 22,7 19,9 22,5 7 4 15 8 NW 1012,2 14 0,0
22.06.2018 21:00:00 23,2 19,8 23,2 8 4 19 10 NW 1011,6 17 0,0
22.06.2018 20:00:00 24,8 19,8 26,7 13 7 26 14 NNW 1011,3 18 0,0
22.06.2018 19:00:00 25,7 19,8 27,9 14 8 34 18 N 1011,0 18 0,0
22.06.2018 18:00:00 26,1 19,7 27,9 21 12 36 19 N 1010,8 20 0,0
22.06.2018 17:00:00 27,2 17,9 29,0 16 8 37 20 NNE 1010,5 32 0,0
22.06.2018 16:00:00 27,7 19,0 30,2 23 13 40 21 NNE 1010,6 17 0,0
22.06.2018 15:00:00 29,8 19,8 32,6 20 11 35 19 N 1010,7 44 0,0
22.06.2018 14:00:00 28,3 19,5 31,9 16 9 40 22 NW 1011,1 20 0,0
22.06.2018 13:00:00 27,6 19,9 31,8 19 11 43 23 NNW 1011,1 20 0,0
22.06.2018 12:00:00 32,3 13,5 31,8 22 12 41 22 S 1010,3 20 0,0
22.06.2018 11:00:00 30,8 15,2 31,6 19 10 45 24 SSW 1010,3 20 0,0
22.06.2018 10:00:00 30,3 15,2 30,7 22 12 41 22 S 1010,4 33 0,0
22.06.2018 09:00:00 29,2 13,8 28,1 21 12 46 25 SSW 1010,8 20 0,0
22.06.2018 08:00:00 27,7 12,9 26,5 25 13 46 25 S 1011,2 43 0,0
22.06.2018 07:00:00 26,4 12,8 24,2 21 12 35 19 S 1011,5 58 0,0
22.06.2018 06:00:00 24,8 12,4 24,3 16 9 37 20 S 1011,9 58 0,0
22.06.2018 05:00:00 24,6 12,9 24,2 16 9 29 15 S 1012,0 56 0,0
22.06.2018 04:00:00 24,7 12,9 24,2 20 11 31 17 S 1013,0 59 0,0
22.06.2018 03:00:00 25,0 13,5 24,8 21 11 36 19 S 1013,8 57 0,0
22.06.2018 02:00:00 25,4 14,5 24,9 8 4 26 14 SSW 1014,1 54 0,0
22.06.2018 01:00:00 25,2 15,2 24,8 14 8 29 16 S 1014,5 49 0,0
22.06.2018 00:00:00 25,3 15,9 24,0 17 9 24 13 S 1014,8 51 0,0
21.06.2018 23:00:00 24,9 16,1 22,4 16 9 24 13 S 1014,9 50 0,0
21.06.2018 22:00:00 24,6 13,8 24,1 10 6 23 12 SSW 1014,8 48 0,0
21.06.2018 21:00:00 25,3 15,0 25,1 11 6 23 12 SE 1014,8 56 0,0
21.06.2018 20:00:00 27,5 13,1 29,9 9 5 29 15 WSW 1014,5 51 0,0
21.06.2018 19:00:00 27,8 16,7 31,4 15 8 30 16 WSW 1014,4 31 0,0
21.06.2018 18:00:00 30,6 15,8 35,7 11 6 22 12 SW 1014,4 55 0,0
21.06.2018 17:00:00 30,9 16,1 32,6 11 6 22 12 WSW 1015,0 48 0,0
21.06.2018 16:00:00 29,9 14,8 33,2 10 5 25 14 SW 1015,5 53 0,0
21.06.2018 15:00:00 30,9 17,9 35,8 13 7 24 13 NNW 1015,3 46 0,0
21.06.2018 14:00:00 30,5 16,9 35,1 12 6 24 13 N 1015,5 54 0,0
21.06.2018 13:00:00 30,2 17,6 34,7 13 7 24 13 NW 1016,2 20 0,0
21.06.2018 12:00:00 28,5 19,7 32,8 17 9 24 13 NNE 1016,6 20 0,0
21.06.2018 11:00:00 27,5 19,3 30,5 16 9 21 11 N 1016,8 44 0,0
21.06.2018 10:00:00 26,7 18,3 29,4 14 7 18 10 N 1016,9 36 0,0
21.06.2018 09:00:00 26,9 17,9 28,6 6 4 12 6 NNE 1016,9 20 0,0
21.06.2018 08:00:00 25,3 18,0 22,5 0 0 9 5 N 1017,0 50 0,0
21.06.2018 07:00:00 21,1 17,3 18,8 6 4 12 7 SSE 1017,1 27 0,0
21.06.2018 06:00:00 18,7 16,3 18,0 8 4 11 6 S 1017,3 18 0,0
21.06.2018 05:00:00 18,5 15,9 18,1 4 2 8 4 S 1017,2 10 0,0
21.06.2018 04:00:00 19,7 16,5 18,9 5 3 12 6 S 1017,4 26 0,0
21.06.2018 03:00:00 19,5 16,5 19,2 8 4 13 7 S 1017,5 23 0,0
21.06.2018 02:00:00 19,6 16,6 19,1 8 4 11 6 S 1017,8 23 0,0
21.06.2018 01:00:00 20,1 16,9 19,9 0 0 10 6 N 1018,0 23 0,0
21.06.2018 00:00:00 21,2 17,4 20,7 9 5 11 6 SSE 1018,3 27 0,0
20.06.2018 23:00:00 22,3 17,9 21,9 5 3 8 4 SSE 1018,1 23 0,0
20.06.2018 22:00:00 23,7 17,9 23,1 2 1 8 4 NW 1017,6 37 0,0
20.06.2018 21:00:00 25,1 18,5 25,0 6 3 14 8 NE 1016,8 45 0,0
20.06.2018 20:00:00 27,0 18,8 29,7 11 6 16 9 NNE 1016,6 40 0,0
20.06.2018 19:00:00 27,3 18,9 30,5 13 7 27 14 NW 1016,3 20 0,0
20.06.2018 18:00:00 27,9 18,9 32,4 16 9 30 16 NNW 1016,1 20 0,0
20.06.2018 17:00:00 28,6 18,7 33,8 16 9 32 17 NW 1016,6 46 0,0
20.06.2018 16:00:00 28,6 18,4 34,4 16 9 33 18 NNW 1017,0 44 0,0
20.06.2018 15:00:00 29,9 16,3 34,4 22 12 35 19 N 1017,2 44 0,0
20.06.2018 14:00:00 30,7 15,2 34,0 23 13 42 23 N 1017,4 20 0,0
20.06.2018 13:00:00 31,0 14,6 34,9 25 13 40 22 N 1017,7 50 0,0
20.06.2018 12:00:00 30,4 14,5 34,6 23 13 34 18 N 1017,8 56 0,0
20.06.2018 11:00:00 30,0 14,1 32,7 20 11 34 19 N 1017,9 60 0,0
20.06.2018 10:00:00 30,0 12,0 31,9 19 10 27 15 NNE 1017,8 19 0,0
20.06.2018 09:00:00 27,4 14,8 27,7 3 1 9 5 NNW 1017,9 20 0,0
20.06.2018 08:00:00 24,8 15,7 21,7 3 1 9 5 NNW 1018,0 33 0,0
20.06.2018 07:00:00 20,5 14,8 17,9 8 4 11 6 S 1018,0 16 0,0
20.06.2018 06:00:00 18,3 13,6 17,6 5 3 15 8 S 1018,0 36 0,0
20.06.2018 05:00:00 19,3 13,7 18,1 7 4 11 6 S 1017,9 36 0,0
20.06.2018 04:00:00 19,3 13,7 18,4 10 6 16 9 S 1017,9 34 0,0
20.06.2018 03:00:00 19,0 13,6 18,3 10 6 15 8 S 1018,4 33 0,0
20.06.2018 02:00:00 19,4 13,6 18,9 6 4 14 8 SSE 1018,4 34 0,0
20.06.2018 01:00:00 19,5 13,9 19,2 10 5 15 8 SSW 1018,5 40 0,0
20.06.2018 00:00:00 21,5 14,2 20,9 10 5 16 8 S 1018,4 31 0,0
19.06.2018 23:00:00 21,9 14,5 21,6 10 5 14 8 S 1017,9 29 0,0
19.06.2018 22:00:00 24,0 13,5 23,2 9 5 17 9 S 1017,3 30 0,0
19.06.2018 21:00:00 27,6 12,8 27,1 15 8 28 15 NNE 1016,7 53 0,0
19.06.2018 20:00:00 29,3 13,5 31,1 19 10 32 18 NNE 1016,1 45 0,0
19.06.2018 19:00:00 30,4 13,2 33,6 19 11 39 21 NNE 1016,2 60 0,0
19.06.2018 18:00:00 31,3 12,1 35,0 26 14 44 24 NNE 1016,2 51 0,0
19.06.2018 17:00:00 32,1 13,3 36,4 31 17 44 24 N 1016,3 20 0,0
19.06.2018 16:00:00 32,3 15,3 37,0 30 16 52 28 N 1016,2 20 0,0
19.06.2018 15:00:00 32,6 15,6 36,4 31 17 43 23 N 1016,3 33 0,0
19.06.2018 14:00:00 32,4 13,1 35,9 27 15 43 23 NNE 1016,7 20 0,0
19.06.2018 13:00:00 33,0 12,1 36,5 27 15 41 22 NNE 1016,8 35 0,0
19.06.2018 12:00:00 32,5 12,2 35,5 25 14 41 22 NNE 1017,3 35 0,0
19.06.2018 11:00:00 31,8 12,6 33,4 22 12 31 17 NNE 1017,2 37 0,0
19.06.2018 10:00:00 29,9 15,2 31,3 2 1 9 5 WNW 1017,5 40 0,0
19.06.2018 09:00:00 27,8 14,8 26,4 3 2 9 5 SSW 1017,2 42 0,0
19.06.2018 08:00:00 24,2 17,0 20,9 7 4 16 8 SSW 1017,1 36 0,0
19.06.2018 07:00:00 20,0 14,8 17,3 11 6 17 9 S 1017,2 24 0,0
19.06.2018 06:00:00 17,6 14,3 17,0 9 5 13 7 S 1017,2 23 0,0
19.06.2018 05:00:00 17,5 14,6 17,0 6 3 12 7 S 1017,2 23 0,0
19.06.2018 04:00:00 18,1 15,2 17,5 3 1 11 6 SSW 1016,9 20 0,0
19.06.2018 03:00:00 18,2 15,8 17,9 6 3 13 7 SSW 1016,9 21 0,0
19.06.2018 02:00:00 19,1 16,7 18,8 9 5 11 6 SSW 1017,0 16 0,0
19.06.2018 01:00:00 19,6 17,7 18,9 9 5 12 7 SSW 1017,3 18 0,0
19.06.2018 00:00:00 19,5 17,8 19,0 7 4 10 6 SSW 1017,4 12 0,0
18.06.2018 23:00:00 20,6 18,5 20,1 8 4 11 6 SSW 1017,2 8 0,0
18.06.2018 22:00:00 21,7 18,9 21,5 5 3 11 6 E 1016,8 8 0,0
18.06.2018 21:00:00 23,3 19,0 23,1 5 3 13 7 NE 1015,9 20 0,0
18.06.2018 20:00:00 25,1 18,8 27,7 9 5 14 8 N 1015,4 32 0,0
18.06.2018 19:00:00 25,6 19,0 30,1 9 5 24 13 N 1014,9 20 0,0
18.06.2018 18:00:00 25,7 19,8 30,9 14 8 28 15 N 1015,0 20 0,0
18.06.2018 17:00:00 25,2 19,8 31,4 14 8 27 15 NNW 1015,2 20 0,0
18.06.2018 16:00:00 25,5 19,6 31,5 16 8 25 14 NW 1015,2 19 0,0
18.06.2018 15:00:00 25,8 20,8 30,2 14 8 27 15 NNW 1015,2 19 0,0
18.06.2018 14:00:00 25,2 20,0 28,4 13 7 30 16 NNW 1015,6 15 0,0
18.06.2018 13:00:00 24,7 20,0 29,6 14 8 28 15 NNW 1015,6 15 0,0
18.06.2018 12:00:00 24,7 19,5 29,0 16 8 34 19 NW 1015,8 16 0,0
18.06.2018 11:00:00 24,8 19,2 26,3 18 10 34 19 NNW 1015,3 18 0,0

tt = temperature
td = dewpoint
tt 5cm = temperature 5cm
ff = wind speed
fx = gusts
dd = wind direction
ppp = reduced air pressure
vv = visibility
rr = precipitation

Next stations